759  
ASUS43 KBIS 221310  
RWRBIS  
 
NWR BROADCAST TEXT  
NATIONAL WEATHER SERVICE BISMARCK ND  
800 AM CDT SUN OCT 22 2017  
 
NOTE: "FAIR" INDICATES FEW OR NO CLOUDS BELOW 12,000 FEET WITH NO  
SIGNIFICANT WEATHER AND/OR S TO VISIBILITY
.  
 
 
CITY SKY/WX TMP DP RH WIND PRES REMARKS
 
WILLISTON CLEAR 32 25 75 SW7 29.75F  
MINOT CLEAR 38 28 67 SW12 29.74F  
MINOT AFB CLEAR 34 27 74 SW10 29.73F  
BISMARCK CLEAR 35 25 66 W3 29.86F  
DICKINSON CLEAR 35 19 52 SW12 29.81S  
GARRISON N/A 34 30 85 SW8 29.79F  
HETTINGER ARPT CLEAR 27 18 69 CALM 29.89F  
JAMESTOWN CLEAR 37 29 72 SW12 29.84S  
CARRINGTON FAIR 36 28 75 SW8G16 29.84R  
LINTON N/A 28 21 74 CALM 29.90F  
TIOGA FAIR 32 28 86 SW13G18 29.75F  

 
 
CITY SKY/WX TMP DP RH WIND PRES REMARKS
 
GRAND FORKS CLEAR 42 34 73 W16 29.77R  
GRAND FORKS AF CLEAR 41 32 70 SW15G22 29.77R  
DEVILS LAKE CLEAR 39 32 76 W16 29.78R  
FARGO CLEAR 40 33 76 SW12 29.87R  
CANDO FAIR 32 32 100 SW10 29.77R  
CAVALIER FAIR 41 34 75 SW20G26 29.70R  
GWINNER N/A 34 32 93 SW8 29.90R  
ROLLA FLURRIES 30 30 100 SW12 29.72R  
WALHALLA FAIR N/A N/A N/A W14G24 29.69R  

 
 
CITY SKY/WX TMP DP RH WIND PRES REMARKS
 
ABERDEEN CLEAR 30 28 92 SW8 29.96R  
MOBRIDGE CLEAR 36 28 73 S9 29.91R  
BUFFALO N/A 34 18 52 W12 29.82S  
RAPID CITY CLOUDY 26 16 65 CALM 29.95F  
GLASGOW CLOUDY 37 29 72 SE12 29.67F  
SIDNEY CLOUDY 30 24 78 S8 29.76F  
WOLF POINT CLOUDY 29 24 82 NE3 29.71F  
GLENDIVE CLOUDY 34 22 61 S5 29.78F  
MILES CITY PTCLDY 34 24 67 SE12 29.79F  
BAKER CLEAR 42 20 41 SW16 29.82F  

 
 
CITY SKY/WX TMP DP RH WIND PRES REMARKS
 
BILLINGS CLOUDY 50 26 39 W17 29.82F  
GREAT FALLS CLOUDY 52 34 50 SW21G32 29.70R  
REGINA MOCLDY 27 23 86 SE8 29.63S WCI 18  
ESTEVAN PTCLDY 28 25 86 S9 29.70F WCI 20  

 
 
 
 
CLICK HERE TO GO TO PREVIOUS BULLETINS.

The Nexlab ND Page Main Text Page